Regional Weather Roundup
Issued by NWS

Home | Current Version | Previous Version | Graphics & Text | Print | Product List | Glossary On
Versions: 1 2 3 4 5 6 7 8 9 10 11 12 13 14 15 16 17 18 19 20 21 22 23 24 25 26 27 28 29 30 31 32 33 34 35 36 37 38 39 40 41 42 43 44 45 46 47 48 49 50
244
ASUS45 KTFX 261410
RWRMT
MONTANA REGIONAL WEATHER ROUNDUP
NATIONAL WEATHER SERVICE GREAT FALLS MT
800 AM MDT SUN MAR 26 2017

NOTE: "FAIR" INDICATES FEW OR NO CLOUDS BELOW 12000 FEET WITH NO
SIGNIFICANT WEATHER AND/OR OBSTRUCTIONS TO VISIBILITY.

MTZ001>007-043-261500-
WEST OF THE DIVIDE

CITY           SKY/WX    TMP DP  RH WIND       PRES   REMARKS
KALISPELL      PTCLDY    25  23  92 CALM      29.98S
MISSOULA       CLEAR     28  26  92 E3        30.01F
BUTTE          CLOUDY    24  20  84 CALM      29.98R
MULLAN PASS    CLOUDY    23  21  92 S7        29.89F WCI  15
ANACONDA         N/A     27  21  80 CALM      29.98S
DEER LODGE       N/A     27  25  93 CALM      30.01R
EUREKA           N/A     28  25  86 CALM      29.97F
HAMILTON         N/A     30  28  93 S6        30.00S WCI  24
RONAN            N/A     33  24  70 CALM      30.01F
$$

MTZ008-052>055-261500-
SOUTHWEST MONTANA

CITY           SKY/WX    TMP DP  RH WIND       PRES   REMARKS
BOZEMAN        CLOUDY    32  29  88 CALM      29.98R
DILLON         CLOUDY    28  20  71 SW9       29.97R WCI  19
W YELLOWSTONE  CLOUDY    27  23  86 S5        30.00R
ENNIS          CLOUDY    32  28  86 CALM      30.02R
THREE FORKS      N/A     30  21  69 CALM      29.98R
TWIN BRIDGES     N/A     29  21  71 CALM      29.97R
$$

MTZ009-010-012-014-046-048-049-054-261500-
EAST SLOPES AND CENTRAL MONTANA

CITY           SKY/WX    TMP DP  RH WIND       PRES   REMARKS
CUT BANK       MOCLDY    26  18  71 W6        29.91R WCI  19
GREAT FALLS    PTCLDY    30  21  69 SW9       29.93R WCI  22
MALMSTROM AFB  PTCLDY    35  24  62 SW10      29.94R WCI  27
HELENA         MOCLDY    36  28  73 SE5       29.98R
AUGUSTA        MOCLDY    34  14  45 SW8       29.92R WCI  27
BOWMANS CRNR   MOCLDY    31  22  69 S6        29.92R WCI  25
CHOTEAU          N/A     32  23  69 SW5       29.94S
CONRAD           N/A     35  27  73 W2        29.95R
FAIRFIELD        N/A     32  17  54 SW3       29.92R
POWER            N/A     24  20  86 W3        29.92S
RAYNESFORD       N/A     33  22  62 CALM      29.94R
$$

MTZ011-013-016-021-045-047-050-051-261500-
NORTH CENTRAL MONTANA

CITY           SKY/WX    TMP DP  RH WIND       PRES   REMARKS
HAVRE          CLOUDY    30  26  85 SW8       29.94R WCI  22
LEWISTOWN      CLOUDY    31  22  69 E3        29.94S
N BAR RANCH    CLOUDY    34  21  60 VRB3      29.96R
CHINOOK          N/A     34  27  75 W5        29.94S
DENTON           N/A     33  24  72 SE12      29.91S WCI  24
GEYSER         MOCLDY    34  22  63 W10       29.91S WCI  26
GRASS RANGE      N/A     33  24  71 W9        29.91R WCI  25
STANFORD       MOCLDY    29  23  78 CALM      29.93S
WINIFRED         N/A     35  25  64 W5        29.93S
$$

MTZ017>020-022>027-061-062-261500-
NORTHEAST MONTANA

CITY           SKY/WX    TMP DP  RH WIND       PRES   REMARKS
GLASGOW        PTCLDY    32  26  78 NW9       29.92R WCI  24
JORDAN           N/A     35  32  88 NW3       29.93R
SIDNEY         SUNNY     35  30  82 S7        29.90S WCI  29
WOLF POINT     CLOUDY    33  29  85 W3        29.91R
MALTA          MOCLDY    30  27  86 W6        29.94R WCI  24
PLENTYWOOD       N/A     41  36  81 E5        29.88S
POPLAR           N/A     36  30  80 SW5       29.91R
$$

MTZ028>42-056>058-261500-
SOUTHCENTRAL AND SOUTHEAST MONTANA

CITY           SKY/WX    TMP DP  RH WIND       PRES   REMARKS
BAKER          CLOUDY    40  37  89 CALM      29.94R
BILLINGS       CLOUDY    39  32  76 W6        29.96R
LIVINGSTON     CLOUDY    31  27  85 SW3       29.96R
MILES CITY     SUNNY     42  37  82 CALM      29.94R
BIG TIMBER     PTCLDY    34  30  86 NW8       29.99R WCI  27
EKALAKA          N/A     39  36  89 NW1       29.92R
FORSYTH          N/A     39  37  93 CALM      29.94R
HARLOWTON      MOCLDY    33  24  72 CALM      29.96R
LAUREL           N/A     37  28  70 CALM      29.94F
$$

REGIONAL REPORTS...DAKOTAS

CITY           SKY/WX    TMP DP  RH WIND       PRES   REMARKS
WILLISTON      MOSUNNY   37  34  89 CALM      29.90S
MINOT          CLOUDY    38  34  85 CALM      29.90R
DICKINSON      CLOUDY    40  35  83 NW8       29.90R
BEACH            N/A    N/A N/A N/A MISG        N/A
TIOGA            N/A     34  34 100 CALM      29.91S
WATFORD CITY     N/A     37  32  81 CALM      29.90S
BISMARCK       CLOUDY    38  35  89 CALM      29.92F
GRAND FORKS    CLOUDY    35  34  96 S6        29.96R WCI  30
FARGO          FOG       35  35 100 CALM      29.98S VSB 1/4
BUFFALO SD       N/A     44  39  82 NE10      29.84R
RAPID CITY     CLOUDY    40  36  86 N13       29.88R
$$

REGIONAL REPORTS...WYOMING/IDAHO/WASHINGTON

CITY           SKY/WX    TMP DP  RH WIND       PRES   REMARKS
GILLETTE       CLOUDY    39  37  92 NW9       29.93R
SHERIDAN       CLOUDY    32  31  96 S6        29.95R WCI  26
BUFFALO WY     CLOUDY    39  35  86 CALM      29.95R
CODY           PTCLDY    35  25  66 S3        29.96R
YELLOWSTONE LA   N/A     19  18  95 NW3       30.00R
IDAHO FALLS    CLEAR     29  27  92 SW7       30.01R WCI  22
SALMON         CLEAR     27  19  74 CALM      30.01R
BOISE          CLEAR     40  27  59 SE12      29.94F
SPOKANE        PTCLDY    33  31  92 E5        29.93F
$$

REGIONAL REPORTS...ALBERTA

CITY           SKY/WX    TMP DP  RH WIND       PRES   REMARKS
EDMONTON       CLEAR     30  27  86 W6        29.84R WCI  24
CALGARY        MOCLDY    27  14  59 N3        29.85S
LETHBRIDGE     MOCLDY    34  23  64 W14       29.88S WCI  24
MEDICINE HAT   MOCLDY    32  25  74 S9        29.87R WCI  24
WATERTON GATE    N/A     34  18  51 SW9         N/A  WCI  26
CARDSTON         N/A     28  18  64 SW7         N/A  WCI  21
MILK RIVER       N/A     32  23  69 W8          N/A  WCI  25
$$

REGIONAL REPORTS...SASKATCHEWAN

CITY           SKY/WX    TMP DP  RH WIND       PRES   REMARKS
SWIFT CURRENT  CLEAR     36  23  60 SW15G21   29.83S WCI  26
REGINA         MOSUNNY   34  32  93 VRB2      29.87S
SASKATOON      CLOUDY    30  30 100 NE12      29.88R WCI  21
VAL MARIE        N/A     32  27  80 S3          N/A
ROCKGLEN         N/A     39  21  48 NW9         N/A
ASSINIBOIA       N/A     28  28 100 S3          N/A
$$




USA.gov is the U.S. government's official web portal to all federal, state and local government web resources and services.